Elkins, WV

3:34 AM EDT on July 27, 2017 (GMT -0400)
Elkins-Randolph County

Weather History for KEKN - March, 2014

Change the Weather History Date:

Saturday, March 15, 2014

  Actual Average Record
Temperature  
Mean Temperature 42 °F 39 °F  
Max Temperature 55 °F 51 °F 79 °F (1990)
Min Temperature 29 °F 28 °F -5 °F (1993)
Degree Days  
Heating Degree Days 23 26  
Month to date heating degree days 467 416  
Since 1 July heating degree days 4990 4737  
Cooling Degree Days 0 0  
Month to date cooling degree days 0 0  
Year to date cooling degree days 0 0  
Moisture  
Dew Point 27 °F    
Average Humidity 50    
Maximum Humidity 72    
Minimum Humidity 28    
Precipitation  
Precipitation 0.04 in 0.13 in 1.22 in (1912)
Month to date precipitation 1.32 1.86  
Year to date precipitation 7.58 8.19  
Snow  
Snow 0.00 in - - ()
Month to date snowfall 3.5  
Since 1 September snowfall 79.4  
Snow Depth 0.00 in    
Sea Level Pressure  
Sea Level Pressure 29.98 in    
Wind  
Wind Speed 10 mph (West)    
Max Wind Speed 28 mph    
Max Gust Speed 39 mph    
Visibility 10 miles    
Events Rain    
T = Trace of Precipitation, MM = Missing Value Source: NWS Daily Summary

Daily Weather History Graph

Daily Weather History Graph

Search for Another Location

Airport or City:

Trip Planner

Search our weather history database for the weather conditions in past years. The results will help you decide how hot, cold, wet, or windy it might be!

Date:

Astronomy

Mar. 15, 2014 Rise Set
Actual Time 7:30 AM EDT 7:26 PM EDT
Civil Twilight 7:04 AM EDT 7:53 PM EDT
Nautical Twilight 6:33 AM EDT 8:24 PM EDT
Astronomical Twilight 6:02 AM EDT 8:55 PM EDT
Moon 6:44 PM EDT (3/15) 6:41 AM EDT (3/15)
Length of Visible Light 12h 48m
Length of Day
11h 55m
Waxing Gibbous, 99% of the Moon is Illuminated
Mar 15
Waxing Gibbous
Mar 16
Full
Mar 23
Last Quarter
Mar 30
New
Apr 7
First Quarter

Hourly Weather History & Observations

Time (EDT) Temp. Windchill Dew Point Humidity Pressure Visibility Wind Dir Wind Speed Gust Speed Precip Events Conditions
12:51 AM 48.9 °F - 32.0 °F 52% 29.92 in 10.0 mi WSW 19.6 mph 35.7 mph 0.00 in Rain Light Rain
1:51 AM 46.9 °F - 35.1 °F 63% 29.91 in 10.0 mi SSW 12.7 mph 20.7 mph 0.03 in Rain Light Rain
2:51 AM 45.0 °F 40.1 °F 36.0 °F 71% 29.87 in 10.0 mi South 9.2 mph - 0.00 in Rain Light Rain
3:51 AM 50.0 °F - 32.0 °F 50% 29.86 in 10.0 mi SW 11.5 mph 21.9 mph 0.00 in   Overcast
4:51 AM 48.9 °F - 32.0 °F 52% 29.87 in 10.0 mi West 12.7 mph 21.9 mph 0.00 in Rain Light Rain
5:51 AM 48.0 °F - 33.1 °F 56% 29.88 in 10.0 mi West 13.8 mph 21.9 mph 0.01 in Rain Light Rain
6:51 AM 45.0 °F 39.3 °F 36.0 °F 71% 29.92 in 10.0 mi WNW 11.5 mph - 0.00 in Rain Light Rain
7:03 AM 45.0 °F 39.7 °F 36.0 °F 71% 29.90 in 10.0 mi NW 10.4 mph 18.4 mph 0.00 in   Overcast
7:31 AM 45.0 °F 40.1 °F 36.0 °F 71% 29.91 in 10.0 mi West 9.2 mph 18.4 mph 0.00 in Rain Light Rain
7:51 AM 44.1 °F - 34.0 °F 68% 29.94 in 10.0 mi North - - 0.00 in   Overcast
8:51 AM 44.1 °F 40.1 °F 30.9 °F 60% 29.97 in 10.0 mi WNW 6.9 mph 16.1 mph 0.00 in   Overcast
9:51 AM 45.0 °F 38.2 °F 28.9 °F 53% 30.00 in 10.0 mi West 15.0 mph 28.8 mph N/A   Mostly Cloudy
10:51 AM 46.9 °F - 30.9 °F 54% 30.01 in 10.0 mi Variable 6.9 mph 21.9 mph N/A   Mostly Cloudy
11:51 AM 48.9 °F - 25.0 °F 39% 30.01 in 10.0 mi West 12.7 mph 31.1 mph N/A   Partly Cloudy
12:51 PM 51.1 °F - 24.1 °F 35% 30.02 in 10.0 mi WNW 13.8 mph 27.6 mph N/A   Clear
1:51 PM 53.1 °F - 23.0 °F 31% 30.01 in 10.0 mi West 11.5 mph 28.8 mph N/A   Clear
2:51 PM 53.1 °F - 21.9 °F 30% 30.01 in 10.0 mi WNW 17.3 mph 27.6 mph N/A   Clear
3:25 PM 54.0 °F - 21.9 °F 29% 29.98 in 10.0 mi West 19.6 mph 28.8 mph N/A   Clear
3:51 PM 54.0 °F - 23.0 °F 30% 29.99 in 10.0 mi WSW 12.7 mph 28.8 mph N/A   Clear
4:51 PM 54.0 °F - 21.9 °F 29% 29.99 in 10.0 mi WNW 20.7 mph 27.6 mph N/A   Clear
5:51 PM 53.1 °F - 21.0 °F 29% 30.01 in 10.0 mi WNW 17.3 mph 29.9 mph N/A   Clear
6:51 PM 52.0 °F - 21.0 °F 30% 30.05 in 10.0 mi West 10.4 mph - N/A   Clear
7:51 PM 50.0 °F - 19.0 °F 29% 30.07 in 10.0 mi WNW 10.4 mph - N/A   Clear
8:51 PM 48.0 °F - 19.0 °F 32% 30.09 in 10.0 mi West 6.9 mph - N/A   Clear
9:51 PM 37.0 °F 34.5 °F 21.0 °F 52% 30.11 in 10.0 mi ESE 3.5 mph - N/A   Clear
10:51 PM 32.0 °F - 21.9 °F 66% 30.12 in 10.0 mi Calm Calm - N/A   Clear
11:51 PM 30.9 °F - 23.0 °F 72% 30.14 in 10.0 mi Calm Calm - N/A   Clear